K4AXV-13 Weather Reports


time (UTC)temp
F
wind
direction
speed
knots
gust
knots
rain 1hr
in
rain 24hr
in
rain mn
in
humidity
%
barometer
mb
20260509203406 77 307 1.7 0.0 0.00 0.00 0.00
20260509202908 78 319 1.7 3.5 0.00 0.00 0.00
20260509202406 77 300 1.7 0.9 0.00 0.00 0.00
20260509201907 77 323 0.0 2.6 0.00 0.00 0.00
20260509201405 78 342 3.5 0.0 0.00 0.00 0.00
20260509200907 78 352 2.6 4.3 0.00 0.00 0.00
20260509200405 77 347 0.0 0.0 0.00 0.00 0.00
20260509195906 77 322 1.7 0.0 0.00 0.00 0.00
20260509195404 78 287 0.9 0.0 0.00 0.00 0.00
20260509194905 78 264 3.5 5.2 0.00 0.00 0.00
20260509194404 79 300 0.9 2.6 0.00 0.00 0.00
20260509193905 78 322 0.0 0.0 0.00 0.00 0.00
20260509193403 78 359 1.7 0.9 0.00 0.00 0.00
20260509192904 78 343 1.7 2.6 0.00 0.00 0.00
20260509191904 78 15 0.9 0.9 0.00 0.00 0.00
20260509191402 78 335 0.0 0.0 0.00 0.00 0.00
20260509190903 78 335 0.0 2.6 0.00 0.00 0.00
20260509190401 78 301 0.9 2.6 0.00 0.00 0.00
20260509185903 78 248 0.9 0.9 0.00 0.00 0.00
20260509185401 79 354 1.7 1.7 0.00 0.00 0.00
20260509184902 78 264 0.0 0.0 0.00 0.00 0.00
20260509183901 78 314 0.9 1.7 0.00 0.00 0.00
20260509183400 78 240 0.9 2.6 0.00 0.00 0.00
20260509182901 79 231 2.6 0.0 0.00 0.00 0.00
20260509182359 77 256 1.7 0.0 0.00 0.00 0.00
20260509181859 78 340 0.9 0.0 0.00 0.00 0.00
20260509181358 78 323 5.2 4.3 0.00 0.00 0.00
20260509180859 78 316 1.7 2.6 0.00 0.00 0.00
20260509180357 78 267 1.7 1.7 0.00 0.00 0.00
20260509175858 78 281 2.6 1.7 0.00 0.00 0.00
20260509175356 78 352 2.6 3.5 0.00 0.00 0.00
20260509174858 78 288 3.5 3.5 0.00 0.00 0.00
20260509173856 79 333 0.9 2.6 0.00 0.00 0.00
20260509173354 79 4 1.7 3.5 0.00 0.00 0.00
20260509172856 79 335 2.6 1.7 0.00 0.00 0.00
20260509172354 78 305 0.0 2.6 0.00 0.00 0.00
20260509171855 78 51 3.5 0.0 0.00 0.00 0.00
20260509171353 78 3 0.9 3.5 0.00 0.00 0.00
20260509170353 78 359 3.5 3.5 0.00 0.00 0.00
20260509165352 79 221 2.6 2.6 0.00 0.00 0.00
20260509164854 79 311 1.7 1.7 0.00 0.00 0.00
20260509164352 80 271 1.7 6.1 0.00 0.00 0.00
20260509163853 79 250 4.3 2.6 0.00 0.00 0.00
20260509162852 80 312 2.6 3.5 0.00 0.00 0.00
20260509162351 80 308 3.5 5.2 0.00 0.00 0.00
20260509161852 80 217 4.3 1.7 0.00 0.00 0.00
20260509161350 80 37 2.6 2.6 0.00 0.00 0.00
20260509161209 79 217 2.6 0.9 0.00 0.00 0.00
20260509160851 79 66 1.7 0.9 0.00 0.00 0.00
20260509160350 79 65 0.9 2.6 0.00 0.00 0.00
20260509155851 79 326 2.6 3.5 0.00 0.00 0.00
20260509155559 77 288 0.9 2.6 0.00 0.00 0.00
20260509155349 79 217 2.6 0.9 0.00 0.00 0.00
20260509154850 78 298 1.7 2.6 0.00 0.00 0.00
20260509154349 77 288 0.9 2.6 0.00 0.00 0.00
20260509154319 76 319 0.0 0.0 0.00 0.00 0.00
20260509153850 76 319 0.0 0.0 0.00 0.00 0.00
20260509153729 75 316 0.9 2.6 0.00 0.00 0.00
20260509153350 75 263 0.0 1.7 0.00 0.00 0.00
20260509153348 75 316 0.9 2.6 0.00 0.00 0.00
20260509152850 74 269 0.9 0.0 0.00 0.00 0.00
20260509152348 74 269 0.9 0.0 0.00 0.00 0.00
20260509152344 75 86 0.0 0.9 0.00 0.00 0.00
20260509151849 74 318 0.0 0.0 0.00 0.00 0.00
20260509151347 74 318 0.0 0.0 0.00 0.00 0.00
20260509150836 74 239 0.0 0.0 0.00 0.00 0.00
20260509150347 74 239 0.0 0.0 0.00 0.00 0.00
20260509145848 74 343 0.0 0.0 0.00 0.00 0.00
20260509145553 74 343 0.0 0.0 0.00 0.00 0.00
20260509145346 74 343 0.0 0.0 0.00 0.00 0.00
20260509145316 74 20 0.9 0.0 0.00 0.00 0.00
20260509144848 74 114 0.9 0.9 0.00 0.00 0.00
20260509144345 74 114 0.9 0.9 0.00 0.00 0.00
20260509144139 74 121 4.3 3.5 0.00 0.00 0.00
20260509143847 74 121 4.3 3.5 0.00 0.00 0.00
20260509143617 74 308 0.0 0.0 0.00 0.00 0.00
20260509143345 74 308 0.0 0.0 0.00 0.00 0.00
20260509143118 73 322 2.6 1.7 0.00 0.00 0.00
20260509142846 73 322 2.6 1.7 0.00 0.00 0.00
20260509142626 72 124 2.6 2.6 0.00 0.00 0.00
20260509142344 72 124 2.6 2.6 0.00 0.00 0.00
20260509142252 72 121 3.5 5.2 0.00 0.00 0.00
20260509141846 72 121 3.5 5.2 0.00 0.00 0.00
20260509141618 71 150 0.9 2.6 0.00 0.00 0.00
20260509141344 71 150 0.9 2.6 0.00 0.00 0.00
20260509141137 71 131 3.5 2.6 0.00 0.00 0.00
20260509140845 71 131 3.5 2.6 0.00 0.00 0.00
20260509140749 71 125 2.6 2.6 0.00 0.00 0.00
20260509140343 71 125 2.6 2.6 0.00 0.00 0.00
20260509140121 71 153 3.5 2.6 0.00 0.00 0.00
20260509135845 71 153 3.5 2.6 0.00 0.00 0.00
20260509135553 70 134 4.3 3.5 0.00 0.00 0.00
20260509135343 70 134 4.3 3.5 0.00 0.00 0.00
20260509135132 69 135 1.7 1.7 0.00 0.00 0.00
20260509134844 69 135 1.7 1.7 0.00 0.00 0.00
20260509134649 69 142 0.9 0.9 0.00 0.00 0.00
20260509134342 69 142 0.9 0.9 0.00 0.00 0.00
20260509134101 68 110 0.9 0.9 0.00 0.00 0.00
20260509133844 68 110 0.9 0.9 0.00 0.00 0.00
20260509133619 68 107 0.0 0.0 0.00 0.00 0.00
20260509133342 68 107 0.0 0.0 0.00 0.00 0.00
20260509133105 68 107 0.0 0.0 0.00 0.00 0.00
20260509132843 68 107 0.0 0.0 0.00 0.00 0.00
20260509132714 67 107 0.0 0.0 0.00 0.00 0.00
20260509132341 67 107 0.0 0.0 0.00 0.00 0.00
20260509131214 66 107 0.0 0.0 0.00 0.00 0.00
20260509130843 66 107 0.0 0.0 0.00 0.00 0.00
20260509124841 64 107 0.0 0.0 0.00 0.00 0.00
20260509123909 63 107 0.0 0.0 0.00 0.00 0.00
20260509123338 63 107 0.0 0.0 0.00 0.00 0.00
20260509122525 64 107 0.0 0.0 0.00 0.00 0.00
20260509122334 64 107 0.0 0.0 0.00 0.00 0.00
20260509121053 64 107 0.0 0.0 0.00 0.00 0.00
20260509120833 64 107 0.0 0.0 0.00 0.00 0.00
20260509120331 64 107 0.0 0.0 0.00 0.00 0.00
20260509115832 63 107 0.0 0.0 0.00 0.00 0.00
20260509115641 63 107 0.0 0.0 0.00 0.00 0.00
20260509115331 63 107 0.0 0.0 0.00 0.00 0.00
20260509115103 63 107 0.0 0.0 0.00 0.00 0.00
20260509114832 63 107 0.0 0.0 0.00 0.00 0.00
20260509113831 63 107 0.0 0.0 0.00 0.00 0.00
20260509113618 62 107 0.0 0.0 0.00 0.00 0.00
20260509113330 62 107 0.0 0.0 0.00 0.00 0.00
20260509113118 62 107 0.0 0.0 0.00 0.00 0.00
20260509113037 62 107 0.0 0.0 0.00 0.00 0.00
20260509112830 62 107 0.0 0.0 0.00 0.00 0.00
20260509112313 62 107 0.0 0.0 0.00 0.00 0.00
20260509111831 62 107 0.0 0.0 0.00 0.00 0.00
20260509111613 62 107 0.0 0.0 0.00 0.00 0.00
20260509111327 62 107 0.0 0.0 0.00 0.00 0.00
20260509110944 61 107 0.0 0.0 0.00 0.00 0.00
20260509110829 61 107 0.0 0.0 0.00 0.00 0.00
20260509110327 61 107 0.0 0.0 0.00 0.00 0.00
20260509104709 61 107 0.0 0.0 0.00 0.00 0.00
20260509104324 61 107 0.0 0.0 0.00 0.00 0.00
20260509103628 61 107 0.0 0.0 0.00 0.00 0.00
20260509103323 61 107 0.0 0.0 0.00 0.00 0.00
20260509101900 61 107 0.0 0.0 0.00 0.00 0.00
20260509101824 61 107 0.0 0.0 0.00 0.00 0.00
20260509100823 61 107 0.0 0.0 0.00 0.00 0.00
20260509094822 62 107 0.0 0.0 0.00 0.00 0.00
20260509094320 62 107 0.0 0.0 0.00 0.00 0.00
20260509093818 62 107 0.0 0.0 0.00 0.00 0.00
20260509092316 61 84 0.0 0.0 0.00 0.00 0.00
20260509091818 62 84 0.0 0.0 0.00 0.00 0.00
20260509091315 62 84 0.0 0.0 0.00 0.00 0.00
20260509084815 62 84 0.0 0.0 0.00 0.00 0.00
20260509084252 61 84 0.0 0.0 0.00 0.00 0.00
20260509083814 61 84 0.0 0.0 0.00 0.00 0.00
20260509082312 62 84 0.0 0.0 0.00 0.00 0.00
20260509081739 62 84 0.0 0.0 0.00 0.00 0.00
20260509081310 62 84 0.0 0.0 0.00 0.00 0.00
20260509075134 62 87 0.0 0.0 0.00 0.00 0.00
20260509074809 62 87 0.0 0.0 0.00 0.00 0.00
20260509074035 62 87 1.7 1.7 0.00 0.00 0.00
20260509073900 62 87 1.7 1.7 0.00 0.00 0.00
20260509073808 62 87 1.7 1.7 0.00 0.00 0.00
20260509073720 61 107 0.0 0.0 0.00 0.00 0.00
20260509073305 61 107 0.0 0.0 0.00 0.00 0.00
20260509072139 61 107 0.0 0.0 0.00 0.00 0.00
20260509071806 61 107 0.0 0.0 0.00 0.00 0.00
20260509071025 62 107 0.0 0.0 0.00 0.00 0.00
20260509070805 62 107 0.0 0.0 0.00 0.00 0.00
20260509070533 61 107 0.0 0.0 0.00 0.00 0.00
20260509070304 61 107 0.0 0.0 0.00 0.00 0.00
20260509064805 61 107 0.0 0.0 0.00 0.00 0.00
20260509062258 61 107 0.0 0.0 0.00 0.00 0.00
20260509053438 61 107 0.0 0.0 0.00 0.00 0.00
20260509053254 61 107 0.0 0.0 0.00 0.00 0.00
20260509053055 62 107 0.0 0.0 0.00 0.00 0.00
20260509052754 62 107 0.0 0.0 0.00 0.00 0.00
20260509051406 61 107 0.0 0.0 0.00 0.00 0.00
20260509051242 61 107 0.0 0.0 0.00 0.00 0.00
20260509050422 61 107 0.0 0.0 0.00 0.00 0.00
20260509050340 61 107 0.0 0.0 0.00 0.00 0.00
20260509050308 61 107 0.0 0.0 0.00 0.00 0.00
20260509050235 61 107 0.0 0.0 0.00 0.00 0.00
20260509045423 61 107 0.0 0.0 0.00 0.00 0.00
20260509045233 61 107 0.0 0.0 0.00 0.00 0.00
20260509044958 61 107 0.0 0.0 0.00 0.00 0.00
20260509044734 61 107 0.0 0.0 0.00 0.00 0.00
20260509044459 61 107 0.0 0.0 0.00 0.00 0.00
20260509044307 61 107 0.0 0.0 0.00 0.00 0.00
20260509044232 61 107 0.0 0.0 0.00 0.00 0.00
20260509043840 61 107 0.0 0.0 0.00 0.00 0.00
20260509043733 61 107 0.0 0.0 0.00 0.00 0.00
20260509043436 62 107 0.0 0.0 0.00 0.00 0.00
20260509043232 62 107 0.0 0.0 0.00 0.00 0.00
20260509042512 61 107 0.0 0.0 0.00 0.00 0.00
20260509042230 61 107 0.0 0.0 0.00 0.00 0.00
20260509042032 62 107 0.0 0.0 0.00 0.00 0.00
20260509041731 62 107 0.0 0.0 0.00 0.00 0.00
20260509041510 62 107 0.0 0.0 0.00 0.00 0.00
20260509041230 62 107 0.0 0.0 0.00 0.00 0.00
20260509040405 62 107 0.0 0.0 0.00 0.03 0.00
20260509040229 62 107 0.0 0.0 0.00 0.03 0.00
20260509040107 61 107 0.0 0.0 0.00 0.03 0.00
20260509035810 61 107 0.0 0.0 0.00 0.03 0.00
20260509035730 61 107 0.0 0.0 0.00 0.03 0.00
20260509035512 62 107 0.0 0.0 0.00 0.03 0.00
20260509035227 62 107 0.0 0.0 0.00 0.03 0.00
20260509035105 62 107 0.0 0.0 0.00 0.03 0.00
20260509034729 62 107 0.0 0.0 0.00 0.03 0.00
20260509033950 61 107 0.0 0.0 0.00 0.03 0.00
20260509033727 61 107 0.0 0.0 0.00 0.03 0.00
20260509032537 61 107 0.0 0.0 0.00 0.03 0.00
20260509032223 61 107 0.0 0.0 0.00 0.03 0.00
20260509031938 62 107 0.0 0.0 0.00 0.03 0.00
20260509031723 62 107 0.0 0.0 0.00 0.03 0.00
20260509030509 62 107 0.0 0.0 0.00 0.03 0.00
20260509030219 62 107 0.0 0.0 0.00 0.03 0.00
20260509025540 62 107 0.0 0.0 0.00 0.03 0.00
20260509025214 62 107 0.0 0.0 0.00 0.03 0.00
20260509024537 62 107 0.0 0.0 0.00 0.03 0.00
20260509024213 62 107 0.0 0.0 0.00 0.03 0.00
20260509024044 62 107 0.0 0.0 0.00 0.03 0.00
20260509023714 62 107 0.0 0.0 0.00 0.03 0.00
20260509023103 62 107 0.0 0.0 0.00 0.03 0.00
20260509022713 62 107 0.0 0.0 0.00 0.03 0.00
20260509022628 62 107 0.0 0.0 0.00 0.03 0.00
20260509022211 62 107 0.0 0.0 0.00 0.03 0.00
20260509021521 62 107 0.0 0.0 0.00 0.03 0.00
20260509021210 62 107 0.0 0.0 0.00 0.03 0.00
20260509015918 62 107 0.0 0.0 0.00 0.03 0.00
20260509015710 62 107 0.0 0.0 0.00 0.03 0.00
20260509015511 62 107 0.0 0.0 0.00 0.03 0.00
20260509015209 62 107 0.0 0.0 0.00 0.03 0.00
20260509015134 62 107 0.0 0.0 0.00 0.03 0.00
20260509014710 62 107 0.0 0.0 0.00 0.03 0.00
20260509014620 63 107 0.0 0.0 0.00 0.03 0.00
20260509014208 63 107 0.0 0.0 0.00 0.03 0.00
20260509014133 63 107 0.0 0.0 0.00 0.03 0.00
20260509013709 63 107 0.0 0.0 0.00 0.03 0.00
20260509013133 63 107 0.0 0.0 0.00 0.03 0.00
20260509012937 62 107 0.0 0.0 0.00 0.03 0.00
20260509012708 63 107 0.0 0.0 0.00 0.03 0.00
20260509012205 62 107 0.0 0.0 0.00 0.03 0.00
20260509012149 62 107 0.0 0.0 0.00 0.03 0.00
20260509011706 62 107 0.0 0.0 0.00 0.03 0.00
20260509011537 63 107 0.0 0.0 0.00 0.03 0.00
20260509011204 63 107 0.0 0.0 0.00 0.03 0.00
20260509011107 63 107 0.0 0.0 0.00 0.03 0.00
20260509010739 63 107 0.0 0.0 0.00 0.03 0.00
20260509010705 63 107 0.0 0.0 0.00 0.03 0.00
20260509010202 63 107 0.0 0.0 0.00 0.03 0.00
20260509005837 63 107 0.0 0.0 0.00 0.03 0.00
20260509005703 63 107 0.0 0.0 0.00 0.03 0.00
20260509005537 63 107 0.0 0.0 0.00 0.03 0.00
20260509005201 63 107 0.0 0.0 0.00 0.03 0.00
20260509004702 63 107 0.0 0.0 0.00 0.03 0.00
20260509004538 63 107 0.0 0.0 0.00 0.03 0.00
20260509004208 64 107 0.0 0.0 0.00 0.03 0.00
20260509004201 63 107 0.0 0.0 0.00 0.03 0.00
20260509003735 63 107 0.0 0.0 0.00 0.03 0.00
20260509003701 64 107 0.0 0.0 0.00 0.03 0.00
20260509003200 63 107 0.0 0.0 0.00 0.03 0.00
20260509002700 64 107 0.0 0.0 0.00 0.03 0.00
20260509002542 64 107 0.0 0.0 0.00 0.03 0.00
20260509002158 64 107 0.0 0.0 0.00 0.03 0.00
20260509001812 64 107 0.0 0.0 0.00 0.03 0.00
20260509001659 64 107 0.0 0.0 0.00 0.03 0.00
20260509001200 64 107 0.0 0.0 0.00 0.03 0.00
20260509001157 64 107 0.0 0.0 0.00 0.03 0.00
20260509000925 64 107 0.0 0.0 0.00 0.03 0.00
20260509000658 64 107 0.0 0.0 0.00 0.03 0.00
20260509000248 64 107 0.0 0.0 0.00 0.03 0.00
20260509000154 64 107 0.0 0.0 0.00 0.03 0.00
20260508235825 64 107 0.0 0.0 0.00 0.03 0.00
20260508235655 64 107 0.0 0.0 0.00 0.03 0.00
20260508235507 65 107 0.0 0.0 0.00 0.03 0.00
20260508235152 64 107 0.0 0.0 0.00 0.03 0.00
20260508234653 65 107 0.0 0.0 0.00 0.03 0.00
20260508234152 65 107 0.0 0.0 0.00 0.03 0.00
20260508233652 65 107 0.0 0.0 0.00 0.03 0.00
20260508233150 64 107 0.0 0.0 0.00 0.03 0.00
20260508233103 65 125 0.0 0.0 0.00 0.03 0.00
20260508232651 65 107 0.0 0.0 0.00 0.03 0.00
20260508232619 64 128 0.0 1.7 0.00 0.03 0.00
20260508232149 65 125 0.0 0.0 0.00 0.03 0.00
20260508232110 65 101 1.7 0.9 0.00 0.03 0.00
20260508231650 64 128 0.0 1.7 0.00 0.03 0.00
20260508231148 65 101 1.7 0.9 0.00 0.03 0.00
20260508230649 65 124 1.7 1.7 0.00 0.03 0.00
20260508225647 65 138 1.7 0.9 0.00 0.03 0.00
20260508225537 66 152 3.5 4.3 0.00 0.03 0.00
20260508225146 65 159 3.5 2.6 0.00 0.03 0.00
20260508224145 66 152 3.5 4.3 0.00 0.03 0.00
20260508223144 66 134 4.3 2.6 0.00 0.03 0.00
20260508222645 66 131 4.3 4.3 0.00 0.03 0.00
20260508222144 66 141 3.5 1.7 0.00 0.03 0.00
20260508221645 66 122 3.5 3.5 0.00 0.03 0.00
20260508221143 66 138 5.2 4.3 0.00 0.03 0.00
20260508220644 67 135 1.7 0.0 0.00 0.03 0.00
20260508220142 67 146 2.6 2.6 0.00 0.03 0.00
20260508215644 67 131 2.6 5.2 0.00 0.03 0.00
20260508214643 66 134 2.6 4.3 0.00 0.03 0.00
20260508214141 67 149 4.3 4.3 0.00 0.03 0.00
20260508213642 67 132 2.6 3.5 0.00 0.03 0.00
20260508213140 67 115 3.5 2.6 0.00 0.03 0.00
20260508212139 67 150 7.0 7.8 0.00 0.03 0.00
20260508211640 68 160 4.3 4.3 0.00 0.03 0.00
20260508211139 68 143 6.1 5.2 0.00 0.03 0.00
20260508210640 68 132 6.1 5.2 0.00 0.03 0.00
20260508210138 68 143 2.6 3.5 0.00 0.03 0.00
20260508205639 68 127 3.5 4.3 0.00 0.03 0.00
20260508205137 68 111 6.1 6.1 0.00 0.03 0.00
20260508204638 68 128 7.0 7.8 0.00 0.03 0.00
20260508204136 69 127 6.1 6.1 0.00 0.03 0.00